Presure
188 163 177 169 168 162 163 160 166 166 151 125 170 149 180 133 153 170 199 204 194 188 184 188 184 184 186 189 193 182 179 179 188 187 196 195 190 186 195 193 114 187 185 191 191 185 199 199 126
179 166 168 133 152 164 160 159 152 123 164 142 118 142 138 163 147 144 153 168 203 180 183 189 186 178 179 177 185 182 181 177 172 181 189 186 158 191 190 178 191 198 167 171 169 167 167 200 190
186 159 167 161 171 153 144 159 159 156 165 167 132 130 146 150 168 187 170 181 178 137 182 186 187 145 180 156 178 177 177 179 182 177 170 174 171 174 190 186 183 201 240 267 243 200 198 216 195
166 170 158 165 175 167 166 166 168 169 159 155 172 121 89 199 142 145 196 99 122 189 212 194 177 183 185 183 182 181 182 183 180 177 176 184 187 185 182 183 200 193 191 228 236 238 229 220 215
177 168 161 157 168 157 160 153 164 150 158 147 157 178 182 172 172 194 197 198 179 193 199 183 181 180 185 186 180 186 182 181 184 179 189 186 183 189 188 184 191 184 191 190 209 175 207 208 210
178 155 165 159 150 148 157 167 168 171 168 165 130 120 184 179 108 179 184 141 202 190 191 168 186 182 183 174 183 183 181 178 182 182 176 176 181 186 179 170 184 181 164 186 186 193 181 199 201
178 166 167 163 162 149 142 133 175 156 135 181 172 171 171 110 177 142 191 186 178 139 190 173 125 173 167 171 178 137 153 182 178 179 159 173 182 182 179 184 182 177 172 185 186 184 194 199 195
164 169 173 162 150 157 163 169 166 175 182 190 181 181 169 160 105 131 168 96 194 135 186 190 188 181 179 184 182 188 185 177 179 158 185 154 176 164 183 179 176 171 180 178 195 185 173 183 191
168 173 178 172 166 163 174 162 155 164 162 194 202 166 166 162 172 119 150 166 133 177 181 184 176 180 183 128 176 170 124 177 178 170 177 179 176 181 176 180 168 161 185 176 161 154 178 183 172
182 172 160 174 169 163 167 177 186 183 194 189 188 192 171 168 156 126 130 134 145 121 164 167 185 179 172 179 172 172 170 174 159 175 173 181 178 179 174 164 160 174 174 159 174 171 178 165 183
174 173 171 176 172 169 176 179 201 175 197 188 185 172 170 155 144 137 174 188 175 146 141 178 166 172 181 169 182 175 173 174 169 173 165 174 182 178 171 168 172 165 169 161 163 183 157 173 157
182 184 177 160 166 186 185 197 170 188 172 180 153 185 160 147 178 143 155 147 139 203 183 147 156 149 151 165 186 176 142 152 177 148 185 177 164 164 167 177 176 173 183 180 179 167 176 183 171
181 185 182 184 176 170 163 169 168 169 149 186 177 163 152 175 178 177 164 198 172 143 146 228 156 162 149 136 167 182 156 185 173 182 177 174 173 170 174 159 168 163 170 166 165 167 172 158 179
173 174 175 163 174 177 175 160 181 173 183 177 174 186 157 154 146 196 184 202 223 165 157 204 152 177 172 161 166 181 147 149 149 172 179 177 164 161 158 180 182 180 181 170 179 177 166 179 174
156 148 183 153 164 163 172 137 188 167 170 149 188 156 193 154 147 138 237 187 160 147 209 200 178 187 202 194 187 153 129 154 193 183 176 127 163 152 173 181 153 147 163 163 128 174 174 174 171
169 155 175 174 158 158 163 160 160 175 164 161 197 183 161 170 149 142 173 162 153 169 188 196 156 214 198 203 173 213 192 197 137 159 182 135 191 193 160 132 178 165 155 187 168 180 178 190 186
152 165 174 152 170 165 160 182 156 152 154 169 181 157 185 158 247 179 178 187 170 188 216 215 188 193 204 182 186 192 200 209 144 190 197 172 192 156 174 161 149 170 168 164 167 177 165 175 163
175 161 169 153 159 151 161 159 176 157 175 166 158 178 165 156 224 171 199 210 181 190 184 183 176 196 203 203 195 199 191 201 196 188 191 196 188 193 158 172 173 169 167 158 184 167 156 170 159
148 174 157 158 152 186 157 182 150 160 186 162 197 159 185 168 209 214 144 176 149 171 157 149 228 234 207 203 204 206 203 201 203 186 181 185 187 177 192 198 203 199 193 200 186 176 136 192 211
164 163 151 151 162 153 171 154 179 168 161 161 158 161 162 228 190 182 177 227 104 144 144 173 196 183 225 165 196 241 224 205 194 192 192 190 199 203 185 193 186 184 197 190 198 176 168 194 190
137 177 154 165 157 170 157 168 153 169 166 160 166 186 210 188 226 216 202 206 213 179 187 186 136 170 156 205 196 188 176 210 217 211 203 209 195 196 197 200 193 191 202 165 182 176 162 178 202
161 171 175 165 162 164 164 163 149 161 160 166 96 104 162 169 193 213 216 198 110 135 222 217 230 214 217 183 205 184 175 191 178 184 205 208 218 216 215 219 226 223 208 206 212 212 206 205 198
153 173 165 167 169 172 157 167 164 164 124 93 77 195 189 212 97 83 205 205 201 207 215 219 85 198 201 217 205 200 212 217 197 224 239 174 181 195 195 216 208 211 213 223 223 224 228 235 239
166 159 172 165 167 166 162 174 172 155 158 116 179 168 180 208 204 207 205 202 209 214 215 211 236 224 206 196 193 207 217 215 223 203 226 229 224 206 230 191 192 196 195 205 224 225 246 234 232
158 171 162 169 172 166 188 166 175 183 177 190 204 206 203 208 197 193 198 208 222 216 217 212 272 200 204 228 217 220 224 230 240 232 234 252 255 257 228 267 252 248 229 235 242 248 251 250 246
162 175 187 175 190 185 168 189 172 202 204 201 208 210 201 201 189 206 217 215 205 213 211 207 175 190 231 236 233 236 237 239 241 231 246 248 262 266 261 266 278 278 257 254 251 239 234 223 247
167 169 159 159 173 173 163 212 221 198 203 206 197 204 199 200 192 200 212 210 220 225 224 221 268 246 256 241 249 238 246 247 240 241 242 254 270 291 278 288 283 283 295 317 330 330 324 310 308
173 168 166 169 189 195 193 207 223 202 201 200 205 206 204 200 214 219 233 251 226 239 267 267 273 270 255 250 249 244 253 246 247 258 260 260 203 257 273 255 273 316 320 303 287 295 298 298 296
185 160 179 197 195 200 204 212 191 83 180 213 218 210 212 216 216 234 235 234 293 269 262 262 276 269 256 253 251 212 124 261 257 253 265 246 246 261 266 279 295 308 297 279 276 278 290 281 279
189 188 191 192 195 202 204 110 71 207 204 203 209 212 216 230 96 237 295 305 286 277 276 261 277 275 271 277 267 273 256 263 252 252 276 266 262 264 274 315 308 283 271 266 286 282 269 270 277
Wind_Speed
32 38 37 41 42 42 43 49 52 50 58 40 60 50 58 29 38 47 47 45 46 48 52 52 50 50 50 46 44 48 51 50 48 49 46 44 43 45 43 45 49 54 56 53 52 56 50 51 64
37 44 41 38 47 42 41 54 55 50 51 48 43 51 28 56 42 39 43 47 46 48 50 52 49 47 49 48 46 49 48 50 54 49 45 45 48 42 43 50 45 46 60 59 60 59 57 50 54
35 38 37 43 43 46 46 58 54 56 53 55 49 44 32 48 53 43 47 48 45 51 50 51 49 48 49 50 49 50 49 50 50 50 53 50 52 50 42 43 46 38 34 35 40 50 49 48 47
41 39 46 40 38 42 44 48 48 47 52 57 62 43 35 43 34 40 48 30 64 38 38 46 47 46 47 49 51 51 48 49 51 51 52 47 47 46 46 44 38 38 38 31 29 29 34 40 44
39 39 35 43 39 47 44 45 48 56 55 59 50 60 37 46 41 48 46 37 43 37 37 43 45 46 47 48 50 50 48 49 51 51 45 46 46 44 41 42 37 40 36 39 32 38 33 37 39
38 47 41 45 51 55 50 54 49 47 46 55 31 51 47 43 38 41 41 50 36 41 36 49 42 45 47 48 49 48 48 51 50 48 48 48 46 44 45 51 41 42 58 39 41 37 45 37 37
38 40 44 46 53 56 55 59 46 50 58 44 48 54 43 63 40 41 40 43 43 51 41 48 52 45 47 49 47 56 52 49 50 49 47 49 47 46 46 44 43 44 47 37 39 36 36 37 39
39 41 44 46 52 50 55 52 49 50 47 47 50 44 43 52 62 48 41 39 38 49 44 43 44 45 46 48 47 44 44 49 48 50 47 52 49 50 47 47 46 49 43 46 39 39 45 45 39
49 48 48 50 51 52 51 52 50 50 49 54 52 45 41 39 35 45 62 46 36 40 44 46 49 48 47 40 49 50 62 48 49 49 49 49 50 49 50 49 47 55 48 45 59 64 43 42 47
46 42 48 47 51 52 54 56 55 53 51 44 40 37 42 35 46 46 49 49 59 58 50 43 48 49 49 50 52 52 52 51 51 52 52 51 50 50 52 51 54 51 50 56 47 53 51 54 46
45 44 41 46 50 54 55 52 51 44 51 45 36 43 40 49 58 56 49 47 49 62 43 49 50 53 53 51 54 57 55 54 54 55 55 54 50 53 55 55 55 52 52 51 53 52 61 52 61
40 43 44 46 43 55 55 57 40 44 33 42 46 41 43 60 40 67 66 70 49 56 54 61 69 57 43 59 54 50 51 52 57 58 54 56 56 56 57 56 59 61 59 58 57 52 55 54 59
42 45 44 46 41 40 51 41 28 25 44 50 40 41 52 47 52 41 57 62 60 59 59 43 47 70 56 43 60 56 55 54 51 60 62 62 63 59 63 62 63 59 60 59 59 60 59 66 59
38 44 43 53 47 49 50 45 55 38 50 50 49 55 54 55 62 66 57 69 55 73 76 54 66 59 60 62 66 62 56 55 55 62 64 64 64 64 62 66 66 66 64 63 64 67 64 67 64
28 51 56 32 48 47 57 50 67 30 46 45 60 55 66 58 66 62 53 64 68 64 55 44 65 62 58 59 61 75 63 70 60 65 67 63 69 62 73 71 64 60 68 67 59 72 71 70 67
54 39 56 55 48 48 54 48 42 64 35 44 75 63 57 51 66 68 71 74 74 58 56 54 62 48 48 50 67 62 67 67 67 83 72 64 70 71 75 65 76 75 66 75 74 77 75 78 76
37 61 60 51 63 61 55 72 51 48 40 50 74 42 72 49 46 61 66 65 64 71 64 57 49 57 55 67 68 68 61 64 60 70 68 81 74 76 81 79 71 80 82 75 80 83 75 77 69
61 57 64 52 56 49 61 64 77 53 79 65 51 73 69 59 46 69 55 50 69 76 74 64 56 60 60 63 66 68 68 69 68 71 69 70 76 80 83 91 92 89 85 83 87 86 66 83 66
48 72 60 64 54 75 57 78 52 70 81 57 81 57 84 56 66 50 80 83 83 75 80 76 57 60 68 69 72 75 76 74 73 77 80 81 81 91 83 82 84 90 92 92 97 98 71 95 93
70 71 56 59 79 53 78 65 80 86 64 74 63 65 62 59 76 84 82 54 36 82 81 84 78 78 69 82 72 75 82 79 75 78 82 84 88 89 93 90 93 95 91 89 93 86 80 95 93
61 78 69 78 80 83 71 82 66 94 84 74 95 82 74 72 62 59 67 72 61 63 80 84 62 81 73 81 81 75 78 69 76 84 90 93 96 96 96 97 96 96 97 85 101 97 88 97 101
78 86 79 81 80 86 87 82 72 88 82 98 25 45 80 94 68 74 74 71 48 58 72 56 70 65 68 88 80 76 82 82 87 87 83 87 92 95 96 98 102 105 107 106 109 111 112 111 108
65 89 84 90 93 92 85 90 94 100 49 35 28 88 92 82 44 47 73 68 69 73 73 71 29 77 81 78 87 88 86 87 94 88 87 90 93 95 95 97 96 97 99 104 107 108 108 110 109
84 83 91 90 96 93 91 104 95 80 85 44 94 96 98 90 89 86 80 81 86 90 87 74 83 70 83 86 98 99 94 92 95 97 90 94 94 103 97 93 92 94 96 99 105 105 108 104 103
88 100 91 93 100 99 94 95 90 99 99 92 89 93 95 96 90 88 90 99 101 96 90 97 56 83 94 104 96 100 101 103 98 99 99 101 96 96 104 94 99 105 109 110 111 110 108 104 100
97 101 102 100 99 97 99 97 104 97 95 95 95 100 97 103 94 104 112 111 93 101 97 82 83 106 102 101 97 97 104 102 102 98 105 103 105 96 96 94 93 98 103 109 112 105 100 89 103
105 99 98 100 109 104 96 106 103 99 99 103 99 103 100 99 93 108 117 109 110 106 96 89 86 92 93 95 100 94 98 103 105 106 108 110 104 88 85 82 80 79 80 70 54 55 49 55 48
86 103 107 106 105 103 97 105 107 104 104 103 108 107 101 101 119 119 117 112 107 96 87 83 79 93 91 92 97 91 98 104 107 108 104 94 66 86 84 77 84 77 52 53 58 41 43 44 43
94 98 106 111 111 113 115 114 96 20 90 118 121 114 124 124 122 125 115 116 86 86 93 86 87 80 83 92 92 75 44 94 99 95 86 89 80 92 89 83 76 51 38 45 50 48 40 40 39
96 100 107 113 113 121 125 42 26 117 113 108 120 120 126 138 35 124 88 77 81 88 93 85 82 77 73 83 86 74 82 76 78 88 89 90 91 80 86 57 50 47 47 48 41 39 43 44 40
Wind_Direction
273 272 265 271 271 281 285 278 278 285 286 266 289 286 298 261 294 297 285 281 274 270 274 273 275 276 278 274 269 264 264 265 269 268 272 270 264 261 265 263 264 263 260 260 261 260 263 262 271
267 275 276 281 286 281 281 277 283 290 287 295 262 283 258 293 289 292 295 280 273 270 271 271 271 273 275 273 270 269 269 267 265 268 271 269 264 272 271 261 267 269 270 267 263 268 268 261 259
259 277 275 282 274 271 270 283 284 285 292 289 295 263 283 286 291 283 288 283 276 276 272 269 268 277 271 267 269 267 268 269 269 266 264 264 262 264 272 269 268 276 285 272 269 263 262 262 261
267 262 275 275 272 273 275 278 291 294 287 291 294 252 279 301 289 298 287 288 266 274 276 273 269 268 268 270 271 269 269 268 268 268 269 268 269 272 270 268 283 278 275 285 276 271 265 262 261
259 265 282 276 285 278 281 288 285 283 289 288 287 291 284 293 280 295 291 288 287 273 270 270 269 271 270 270 270 271 270 269 268 270 272 273 271 273 276 271 281 269 275 274 277 270 271 266 263
260 279 264 265 268 278 279 287 286 292 286 293 270 286 296 296 257 292 291 289 283 282 271 276 267 269 270 273 270 270 270 272 272 272 274 271 271 274 271 265 275 272 265 268 267 269 264 272 267
264 284 270 275 273 279 279 299 290 283 295 292 293 293 290 269 293 273 291 288 286 273 276 280 287 273 271 269 271 270 275 270 271 272 270 271 272 273 271 275 269 269 267 278 273 270 272 268 267
280 285 282 279 277 276 285 289 289 296 299 305 306 291 290 291 283 270 292 285 296 287 284 277 273 274 274 270 268 269 270 269 270 271 275 267 271 269 274 272 269 264 274 273 276 267 261 264 264
281 282 282 284 283 285 288 286 282 283 290 299 297 273 276 291 293 286 295 288 282 296 291 282 280 280 271 268 270 269 281 271 272 273 274 274 274 274 274 275 268 263 278 270 263 266 264 264 261
276 273 281 283 287 288 288 293 295 295 297 294 281 296 278 293 284 279 271 293 298 270 289 286 278 275 274 271 276 274 277 272 273 273 274 274 274 273 272 271 266 274 274 261 274 266 267 259 266
281 284 283 282 284 287 291 297 297 292 298 296 289 284 267 271 280 276 288 306 280 295 295 268 277 276 273 280 270 274 273 272 277 274 276 274 272 270 271 273 273 271 272 267 266 275 264 267 263
281 284 287 293 285 294 296 297 308 300 294 304 268 304 260 281 301 288 276 290 292 297 274 297 292 298 293 286 270 269 275 285 270 269 272 270 272 271 270 270 271 272 274 275 275 268 273 269 266
292 292 292 293 293 295 296 300 303 273 273 307 311 276 267 298 287 292 288 308 300 293 291 280 285 282 298 261 281 267 275 263 267 267 268 268 269 271 270 269 270 272 272 272 272 272 270 268 266
308 304 306 299 307 307 310 297 313 285 308 292 303 316 276 272 275 313 311 307 297 284 286 285 288 274 269 272 284 262 286 286 285 270 263 263 272 276 268 266 266 268 268 269 270 270 267 271 268
300 282 296 288 321 321 314 297 303 295 291 277 317 266 308 265 279 291 294 308 295 294 299 289 280 282 281 269 266 286 266 284 260 260 260 276 275 277 268 264 269 266 272 268 270 265 265 266 266
317 312 308 309 316 314 320 310 318 320 303 282 304 318 272 296 272 283 299 286 292 283 300 294 292 291 277 274 279 268 265 267 270 281 266 269 262 259 275 273 268 275 270 266 271 268 268 268 267
303 320 307 290 318 309 314 299 304 285 296 305 320 279 321 271 312 306 298 299 287 304 296 295 291 287 285 274 279 274 267 266 281 265 269 267 265 266 264 275 271 268 272 272 273 268 274 267 268
301 321 312 304 317 289 312 319 306 302 315 312 289 311 309 271 311 304 289 289 300 304 302 294 271 294 287 280 276 274 268 270 266 264 262 261 269 268 280 263 264 269 264 274 264 272 269 274 266
301 308 315 318 304 294 313 301 292 311 302 319 298 301 309 301 303 295 277 307 281 296 291 287 290 288 280 282 280 276 277 276 276 261 262 261 262 263 262 263 265 265 265 267 267 269 273 267 269
311 309 307 303 312 306 309 314 305 309 310 314 305 296 307 313 299 302 303 302 291 283 286 295 290 286 290 285 281 274 270 277 278 276 273 271 274 272 266 265 261 262 264 267 266 269 269 268 270
281 295 312 303 309 303 310 305 306 307 310 308 311 303 301 304 313 298 290 304 293 298 290 291 290 288 274 284 283 281 276 277 271 268 267 269 271 273 273 271 270 264 267 267 266 271 269 273 270
308 300 295 303 307 302 302 303 303 305 307 306 287 299 305 305 305 312 315 296 302 298 307 281 294 277 279 284 278 278 277 275 271 278 269 269 270 269 269 269 269 269 271 272 271 271 271 270 272
299 298 302 301 299 298 304 303 300 299 296 284 273 298 297 304 286 293 298 299 293 299 302 300 282 284 279 268 280 280 284 285 276 279 280 277 273 267 268 268 267 269 269 269 269 269 268 268 270
301 310 297 302 301 303 302 299 297 302 302 303 299 300 299 306 306 307 304 302 308 308 309 302 303 283 279 280 282 283 283 280 279 275 276 276 270 271 269 274 275 274 273 271 268 270 271 269 272
305 299 303 297 297 302 299 302 298 298 301 305 302 304 305 310 304 301 303 307 310 309 306 306 292 292 292 287 283 285 282 281 278 278 280 279 278 275 268 272 267 265 269 269 269 269 270 273 274
302 294 291 296 290 290 300 295 297 305 304 300 307 311 307 309 301 307 309 308 305 304 301 295 279 282 277 274 277 273 274 277 277 279 278 277 277 274 273 274 276 273 265 265 267 274 276 272 273
295 294 300 300 296 296 298 310 308 299 304 305 302 308 305 302 300 308 305 302 300 296 293 287 264 269 267 267 270 274 274 272 273 275 277 277 279 283 284 287 286 284 280 282 283 276 269 270 272
290 289 291 293 296 298 298 311 312 303 301 302 305 305 306 303 307 305 301 300 299 295 286 279 269 261 265 266 267 268 268 268 270 271 277 283 284 286 290 284 289 293 280 276 273 271 273 271 269
291 293 295 301 302 304 305 313 301 248 302 308 307 307 308 306 306 306 303 300 277 276 278 283 276 272 269 270 270 276 276 271 274 276 276 279 283 286 285 290 290 277 270 269 270 274 273 271 271
295 297 301 302 305 308 308 294 276 305 304 304 306 308 307 306 294 303 286 280 278 273 274 281 276 274 274 269 273 267 274 277 277 277 273 271 278 283 289 279 267 266 266 267 279 269 270 273 273